| time (UTC) | temp F | wind direction | speed MPH | gust MPH | rain 1hr in | rain 24hr in | rain mn in | humidity % | barometer mb |
| 20260504110509 | 51 | 244 | 2.0 | 3.0 | 0.00 | 0.00 | 0.00 | 69 | 1007.0 |
| 20260504100430 | 51 | 216 | 2.0 | 3.0 | 0.00 | 0.00 | 0.00 | 67 | 1007.3 |
| 20260504081824 | 51 | 135 | 2.0 | 3.0 | 0.00 | 0.00 | 0.00 | 65 | 1008.2 |
| 20260504081320 | 51 | 266 | 1.0 | 3.0 | 0.00 | 0.00 | 0.00 | 66 | 1008.1 |
| 20260504080816 | 52 | 217 | 2.0 | 3.0 | 0.00 | 0.00 | 0.00 | 65 | 1008.3 |
| 20260504080314 | 52 | 218 | 1.0 | 3.0 | 0.00 | 0.00 | 0.00 | 65 | 1008.3 |
| 20260504070241 | 52 | 159 | 1.0 | 2.0 | 0.00 | 0.00 | 0.00 | 65 | 1008.8 |
| 20260504060201 | 53 | 161 | 2.0 | 4.0 | 0.00 | 0.00 | 0.00 | 61 | 1009.8 |
| 20260504050629 | 53 | 227 | 1.0 | 3.0 | 0.00 | 0.00 | 0.00 | 59 | 1010.3 |
| 20260504050126 | 53 | 145 | 2.0 | 3.0 | 0.00 | 0.00 | 0.00 | 60 | 1010.2 |
| 20260504045623 | 53 | 229 | 2.0 | 4.0 | 0.00 | 0.00 | 0.00 | 60 | 1010.7 |
| 20260504045118 | 52 | 187 | 2.0 | 4.0 | 0.00 | 0.00 | 0.00 | 61 | 1010.4 |
| 20260504044616 | 52 | 232 | 2.0 | 3.0 | 0.00 | 0.00 | 0.00 | 62 | 1010.5 |
| 20260504044113 | 52 | 139 | 3.0 | 4.0 | 0.00 | 0.00 | 0.00 | 62 | 1010.4 |
| 20260504043610 | 52 | 141 | 3.0 | 3.0 | 0.00 | 0.00 | 0.00 | 63 | 1010.4 |
| 20260504043107 | 51 | 187 | 2.0 | 2.0 | 0.00 | 0.00 | 0.00 | 65 | 1010.4 |
| 20260504042604 | 52 | 218 | 2.0 | 3.0 | 0.00 | 0.00 | 0.00 | 64 | 1010.3 |
| 20260504042101 | 52 | 225 | 2.0 | 4.0 | 0.00 | 0.00 | 0.00 | 64 | 1010.4 |
| 20260504041556 | 52 | 134 | 2.0 | 2.0 | 0.00 | 0.00 | 0.00 | 65 | 1010.5 |
| 20260504041053 | 51 | 151 | 2.0 | 3.0 | 0.00 | 0.00 | 0.00 | 64 | 1010.5 |
| 20260504040551 | 51 | 143 | 2.0 | 3.0 | 0.00 | 0.00 | 0.00 | 65 | 1010.5 |
| 20260504040047 | 51 | 188 | 2.0 | 2.0 | 0.00 | 0.00 | 0.00 | 66 | 1010.8 |
| 20260504035544 | 51 | 230 | 2.0 | 3.0 | 0.00 | 0.00 | 0.00 | 66 | 1010.7 |
| 20260504035040 | 51 | 159 | 2.0 | 4.0 | 0.00 | 0.00 | 0.00 | 66 | 1010.9 |
| 20260504034538 | 51 | 146 | 2.0 | 2.0 | 0.00 | 0.00 | 0.00 | 67 | 1010.9 |
| 20260504034035 | 51 | 225 | 2.0 | 2.0 | 0.00 | 0.00 | 0.00 | 67 | 1011.0 |
| 20260504033533 | 51 | 142 | 2.0 | 4.0 | 0.00 | 0.00 | 0.00 | 67 | 1010.8 |
| 20260504033030 | 51 | 230 | 3.0 | 4.0 | 0.00 | 0.00 | 0.00 | 67 | 1010.9 |
| 20260504032527 | 51 | 225 | 2.0 | 3.0 | 0.00 | 0.00 | 0.00 | 68 | 1010.9 |
| 20260504032024 | 51 | 135 | 4.0 | 4.0 | 0.00 | 0.00 | 0.00 | 67 | 1011.1 |
| 20260504031521 | 51 | 146 | 3.0 | 4.0 | 0.00 | 0.00 | 0.00 | 67 | 1011.0 |
| 20260504031017 | 51 | 126 | 3.0 | 6.0 | 0.00 | 0.00 | 0.00 | 67 | 1011.2 |
| 20260504030514 | 51 | 125 | 3.0 | 4.0 | 0.00 | 0.00 | 0.00 | 67 | 1011.2 |
| 20260504030010 | 51 | 121 | 2.0 | 6.0 | 0.00 | 0.00 | 0.00 | 66 | 1011.2 |
| 20260504025507 | 51 | 226 | 2.0 | 3.0 | 0.00 | 0.00 | 0.00 | 67 | 1011.3 |
| 20260504025004 | 51 | 159 | 3.0 | 4.0 | 0.00 | 0.00 | 0.00 | 67 | 1011.2 |
| 20260504024502 | 51 | 158 | 2.0 | 4.0 | 0.00 | 0.00 | 0.00 | 67 | 1011.2 |
| 20260504023958 | 51 | 227 | 3.0 | 6.0 | 0.00 | 0.00 | 0.00 | 67 | 1011.3 |
| 20260504023455 | 51 | 213 | 3.0 | 4.0 | 0.00 | 0.00 | 0.00 | 67 | 1011.4 |
| 20260504022950 | 51 | 156 | 2.0 | 4.0 | 0.00 | 0.00 | 0.00 | 66 | 1011.4 |
| 20260504022447 | 51 | 203 | 2.0 | 4.0 | 0.00 | 0.00 | 0.00 | 67 | 1011.3 |
| 20260504021943 | 50 | 137 | 3.0 | 3.0 | 0.00 | 0.00 | 0.00 | 68 | 1011.5 |
| 20260504021441 | 50 | 137 | 2.0 | 4.0 | 0.00 | 0.00 | 0.00 | 68 | 1011.5 |
| 20260504020938 | 51 | 230 | 2.0 | 3.0 | 0.00 | 0.00 | 0.00 | 68 | 1011.6 |
| 20260504020434 | 51 | 131 | 2.0 | 4.0 | 0.00 | 0.00 | 0.00 | 68 | 1011.4 |
| 20260504015931 | 51 | 220 | 2.0 | 4.0 | 0.00 | 0.00 | 0.00 | 68 | 1011.6 |
| 20260504015427 | 51 | 240 | 4.0 | 4.0 | 0.00 | 0.00 | 0.00 | 68 | 1011.7 |
| 20260504014923 | 51 | 146 | 4.0 | 6.0 | 0.00 | 0.00 | 0.00 | 68 | 1011.4 |
| 20260504014419 | 51 | 182 | 3.0 | 6.0 | 0.00 | 0.00 | 0.00 | 68 | 1011.5 |
| 20260504013916 | 51 | 141 | 3.0 | 4.0 | 0.00 | 0.00 | 0.00 | 68 | 1011.6 |
| 20260504013415 | 51 | 150 | 3.0 | 3.0 | 0.00 | 0.00 | 0.00 | 68 | 1011.5 |
| 20260504012910 | 51 | 160 | 3.0 | 3.0 | 0.00 | 0.00 | 0.00 | 68 | 1011.5 |
| 20260504012409 | 51 | 154 | 2.0 | 3.0 | 0.00 | 0.00 | 0.00 | 68 | 1011.4 |
| 20260504011906 | 51 | 147 | 2.0 | 4.0 | 0.00 | 0.00 | 0.00 | 68 | 1011.5 |
| 20260504011403 | 51 | 158 | 1.0 | 3.0 | 0.00 | 0.00 | 0.00 | 69 | 1011.4 |
| 20260504010858 | 51 | 148 | 2.0 | 4.0 | 0.00 | 0.00 | 0.00 | 68 | 1011.8 |
| 20260504010354 | 51 | 148 | 2.0 | 2.0 | 0.00 | 0.00 | 0.00 | 68 | 1011.8 |
| 20260504005851 | 51 | 212 | 1.0 | 2.0 | 0.00 | 0.00 | 0.00 | 68 | 1011.7 |
| 20260504005348 | 51 | 199 | 1.0 | 3.0 | 0.00 | 0.00 | 0.00 | 68 | 1011.7 |
| 20260504004845 | 51 | 130 | 2.0 | 2.0 | 0.00 | 0.00 | 0.00 | 68 | 1011.6 |
| 20260504004343 | 51 | 203 | 1.0 | 2.0 | 0.00 | 0.00 | 0.00 | 68 | 1011.8 |
| 20260504003839 | 51 | 157 | 2.0 | 2.0 | 0.00 | 0.00 | 0.00 | 67 | 1011.6 |
| 20260504003336 | 51 | 160 | 1.0 | 2.0 | 0.00 | 0.00 | 0.00 | 68 | 1011.8 |
| 20260504002833 | 52 | 150 | 1.0 | 2.0 | 0.00 | 0.00 | 0.00 | 67 | 1011.8 |
| 20260504002330 | 52 | 178 | 2.0 | 2.0 | 0.00 | 0.00 | 0.00 | 66 | 1011.6 |
| 20260504001827 | 52 | 135 | 0.0 | 3.0 | 0.00 | 0.00 | 0.00 | 66 | 1011.7 |
| 20260504001324 | 52 | 156 | 1.0 | 1.0 | 0.00 | 0.00 | 0.00 | 64 | 1011.7 |
| 20260504000821 | 52 | 122 | 1.0 | 3.0 | 0.00 | 0.00 | 0.00 | 64 | 1011.8 |
| 20260504000318 | 52 | 160 | 1.0 | 4.0 | 0.00 | 0.00 | 0.00 | 65 | 1011.8 |
| 20260503235816 | 52 | 218 | 1.0 | 2.0 | 0.00 | 0.00 | 0.00 | 64 | 1012.1 |
| 20260503235313 | 52 | 224 | 1.0 | 3.0 | 0.00 | 0.00 | 0.00 | 64 | 1012.2 |
| 20260503234811 | 52 | 234 | 2.0 | 2.0 | 0.00 | 0.00 | 0.00 | 64 | 1011.9 |
| 20260503234308 | 52 | 233 | 1.0 | 4.0 | 0.00 | 0.00 | 0.00 | 63 | 1012.2 |
| 20260503233806 | 52 | 216 | 2.0 | 3.0 | 0.00 | 0.00 | 0.00 | 63 | 1012.4 |
| 20260503233301 | 53 | 244 | 6.0 | 7.0 | 0.00 | 0.00 | 0.00 | 62 | 1012.3 |
| 20260503232758 | 53 | 223 | 4.0 | 6.0 | 0.00 | 0.00 | 0.00 | 62 | 1012.3 |
| 20260503232256 | 53 | 214 | 6.0 | 9.0 | 0.00 | 0.00 | 0.00 | 61 | 1012.3 |
| 20260503231754 | 53 | 258 | 4.0 | 9.0 | 0.00 | 0.00 | 0.00 | 61 | 1012.2 |
| 20260503231250 | 53 | 233 | 5.0 | 10.0 | 0.00 | 0.00 | 0.00 | 61 | 1012.3 |
| 20260503230746 | 53 | 240 | 4.0 | 6.0 | 0.00 | 0.00 | 0.00 | 60 | 1012.5 |
| 20260503230244 | 53 | 228 | 8.0 | 10.0 | 0.00 | 0.00 | 0.00 | 59 | 1012.5 |
| 20260503225741 | 53 | 239 | 5.0 | 15.0 | 0.00 | 0.00 | 0.00 | 60 | 1012.5 |
| 20260503225241 | 54 | 280 | 8.0 | 10.0 | 0.00 | 0.00 | 0.00 | 60 | 1012.5 |
| 20260503224738 | 54 | 201 | 6.0 | 9.0 | 0.00 | 0.00 | 0.00 | 60 | 1012.6 |
| 20260503224236 | 54 | 225 | 6.0 | 7.0 | 0.00 | 0.00 | 0.00 | 59 | 1012.8 |
| 20260503223733 | 55 | 289 | 5.0 | 8.0 | 0.00 | 0.00 | 0.00 | 58 | 1012.7 |
| 20260503223231 | 55 | 291 | 6.0 | 8.0 | 0.00 | 0.00 | 0.00 | 57 | 1012.6 |
| 20260503222727 | 55 | 281 | 6.0 | 8.0 | 0.00 | 0.00 | 0.00 | 60 | 1012.4 |
| 20260503222225 | 55 | 274 | 5.0 | 13.0 | 0.00 | 0.00 | 0.00 | 58 | 1012.5 |
| 20260503221723 | 56 | 260 | 3.0 | 13.0 | 0.00 | 0.00 | 0.00 | 59 | 1012.4 |
| 20260503221221 | 57 | 217 | 8.0 | 10.0 | 0.00 | 0.00 | 0.00 | 55 | 1012.2 |
| 20260503220717 | 60 | 312 | 7.0 | 24.0 | 0.00 | 0.00 | 0.00 | 47 | 1012.1 |
| 20260503220214 | 60 | 286 | 5.0 | 11.0 | 0.00 | 0.00 | 0.00 | 39 | 1012.0 |
| 20260503215710 | 60 | 241 | 5.0 | 13.0 | 0.00 | 0.00 | 0.00 | 38 | 1012.0 |
| 20260503215208 | 60 | 234 | 2.0 | 8.0 | 0.00 | 0.00 | 0.00 | 38 | 1012.0 |
| 20260503214706 | 60 | 327 | 5.0 | 11.0 | 0.00 | 0.00 | 0.00 | 37 | 1012.1 |
| 20260503214202 | 60 | 219 | 4.0 | 7.0 | 0.00 | 0.00 | 0.00 | 38 | 1012.3 |
| 20260503213701 | 60 | 143 | 5.0 | 8.0 | 0.00 | 0.00 | 0.00 | 38 | 1012.2 |
| 20260503213157 | 60 | 266 | 5.0 | 9.0 | 0.00 | 0.00 | 0.00 | 36 | 1012.2 |
| 20260503212654 | 61 | 270 | 9.0 | 10.0 | 0.00 | 0.00 | 0.00 | 37 | 1012.1 |
| 20260503212152 | 60 | 251 | 4.0 | 10.0 | 0.00 | 0.00 | 0.00 | 38 | 1012.1 |
| 20260503211650 | 60 | 335 | 6.0 | 7.0 | 0.00 | 0.00 | 0.00 | 38 | 1012.0 |
| 20260503211145 | 60 | 295 | 3.0 | 8.0 | 0.00 | 0.00 | 0.00 | 38 | 1012.3 |
| 20260503210641 | 60 | 247 | 10.0 | 13.0 | 0.00 | 0.00 | 0.00 | 37 | 1012.4 |
| 20260503210138 | 60 | 243 | 3.0 | 7.0 | 0.00 | 0.00 | 0.00 | 38 | 1012.3 |
| 20260503205634 | 60 | 267 | 5.0 | 8.0 | 0.00 | 0.00 | 0.00 | 37 | 1012.3 |
| 20260503205130 | 60 | 241 | 4.0 | 15.0 | 0.00 | 0.00 | 0.00 | 38 | 1012.4 |
| 20260503204627 | 60 | 235 | 9.0 | 14.0 | 0.00 | 0.00 | 0.00 | 36 | 1012.4 |
| 20260503204125 | 60 | 225 | 8.0 | 13.0 | 0.00 | 0.00 | 0.00 | 36 | 1012.4 |
| 20260503203621 | 61 | 248 | 4.0 | 14.0 | 0.00 | 0.00 | 0.00 | 36 | 1012.6 |
| 20260503203119 | 61 | 194 | 6.0 | 7.0 | 0.00 | 0.00 | 0.00 | 36 | 1012.5 |
| 20260503202616 | 61 | 228 | 9.0 | 13.0 | 0.00 | 0.00 | 0.00 | 36 | 1012.6 |
| 20260503202114 | 61 | 221 | 6.0 | 11.0 | 0.00 | 0.00 | 0.00 | 37 | 1012.6 |
| 20260503201612 | 61 | 346 | 4.0 | 11.0 | 0.00 | 0.00 | 0.00 | 36 | 1012.7 |
| 20260503201109 | 61 | 315 | 4.0 | 13.0 | 0.00 | 0.00 | 0.00 | 36 | 1012.9 |
| 20260503200605 | 61 | 253 | 4.0 | 8.0 | 0.00 | 0.00 | 0.00 | 36 | 1013.0 |
| 20260503195559 | 61 | 248 | 4.0 | 7.0 | 0.00 | 0.00 | 0.00 | 37 | 1012.9 |
| 20260503195056 | 61 | 244 | 8.0 | 11.0 | 0.00 | 0.00 | 0.00 | 37 | 1013.3 |
| 20260503194553 | 61 | 256 | 8.0 | 11.0 | 0.00 | 0.00 | 0.00 | 34 | 1013.1 |
| 20260503194053 | 61 | 180 | 6.0 | 9.0 | 0.00 | 0.00 | 0.00 | 36 | 1013.5 |
| 20260503193550 | 61 | 226 | 4.0 | 8.0 | 0.00 | 0.00 | 0.00 | 37 | 1013.2 |
| 20260503193045 | 61 | 258 | 6.0 | 8.0 | 0.00 | 0.00 | 0.00 | 37 | 1013.3 |
| 20260503192541 | 61 | 255 | 9.0 | 13.0 | 0.00 | 0.00 | 0.00 | 35 | 1013.3 |
| 20260503192037 | 61 | 234 | 7.0 | 10.0 | 0.00 | 0.00 | 0.00 | 35 | 1013.3 |
| 20260503191534 | 61 | 222 | 4.0 | 8.0 | 0.00 | 0.00 | 0.00 | 38 | 1013.5 |
| 20260503191031 | 61 | 255 | 7.0 | 13.0 | 0.00 | 0.00 | 0.00 | 35 | 1013.5 |
| 20260503190528 | 61 | 232 | 9.0 | 14.0 | 0.00 | 0.00 | 0.00 | 36 | 1013.7 |
| 20260503190025 | 61 | 246 | 9.0 | 10.0 | 0.00 | 0.00 | 0.00 | 34 | 1013.8 |
| 20260503185521 | 60 | 223 | 7.0 | 9.0 | 0.00 | 0.00 | 0.00 | 36 | 1013.8 |
| 20260503185020 | 61 | 252 | 7.0 | 13.0 | 0.00 | 0.00 | 0.00 | 36 | 1013.9 |
| 20260503184517 | 61 | 281 | 6.0 | 8.0 | 0.00 | 0.00 | 0.00 | 37 | 1014.0 |
| 20260503184013 | 61 | 272 | 3.0 | 14.0 | 0.00 | 0.00 | 0.00 | 37 | 1014.1 |
| 20260503183510 | 61 | 228 | 7.0 | 9.0 | 0.00 | 0.00 | 0.00 | 37 | 1014.4 |
| 20260503183007 | 61 | 232 | 7.0 | 8.0 | 0.00 | 0.00 | 0.00 | 35 | 1014.1 |
| 20260503182506 | 61 | 234 | 6.0 | 9.0 | 0.00 | 0.00 | 0.00 | 37 | 1014.2 |
| 20260503182004 | 61 | 235 | 4.0 | 11.0 | 0.00 | 0.00 | 0.00 | 37 | 1014.2 |
| 20260503181500 | 61 | 221 | 7.0 | 10.0 | 0.00 | 0.00 | 0.00 | 36 | 1014.3 |
| 20260503180956 | 60 | 283 | 4.0 | 4.0 | 0.00 | 0.00 | 0.00 | 37 | 1014.4 |
| 20260503180454 | 61 | 222 | 7.0 | 11.0 | 0.00 | 0.00 | 0.00 | 35 | 1014.5 |
| 20260503175951 | 61 | 241 | 6.0 | 10.0 | 0.00 | 0.00 | 0.00 | 36 | 1014.4 |
| 20260503175449 | 61 | 216 | 7.0 | 8.0 | 0.00 | 0.00 | 0.00 | 34 | 1014.5 |
| 20260503174944 | 61 | 237 | 8.0 | 11.0 | 0.00 | 0.00 | 0.00 | 34 | 1014.7 |
| 20260503174443 | 60 | 221 | 6.0 | 10.0 | 0.00 | 0.00 | 0.00 | 34 | 1014.4 |
| 20260503173944 | 60 | 275 | 2.0 | 8.0 | 0.00 | 0.00 | 0.00 | 36 | 1014.8 |
| 20260503173440 | 61 | 255 | 6.0 | 8.0 | 0.00 | 0.00 | 0.00 | 35 | 1014.8 |
| 20260503172937 | 60 | 217 | 7.0 | 8.0 | 0.00 | 0.00 | 0.00 | 35 | 1014.7 |
| 20260503172434 | 60 | 240 | 5.0 | 11.0 | 0.00 | 0.00 | 0.00 | 36 | 1014.8 |
| 20260503171930 | 61 | 235 | 4.0 | 7.0 | 0.00 | 0.00 | 0.00 | 35 | 1014.8 |
| 20260503171427 | 61 | 274 | 8.0 | 11.0 | 0.00 | 0.00 | 0.00 | 33 | 1014.7 |
| 20260503170925 | 60 | 264 | 7.0 | 11.0 | 0.00 | 0.00 | 0.00 | 36 | 1014.9 |
| 20260503170421 | 60 | 285 | 8.0 | 9.0 | 0.00 | 0.00 | 0.00 | 36 | 1014.9 |